SCP
0 0 0 0 0 0 0 0 0 0 0 0 0 0 0 0 0 0 0 0 0 0 0 0 0 0 0 0 0 0 0 0 0 0 0 0 0 0 0 0 0 0 0 0 0 0 0 0 0 0 0 0 0 0
0 0 0 0 0 0 0 0 0 0 0 0 0 0 0 0 0 0 0 0 0 0 0 0 0 0 0 0 0 0 0 0 0 0 0 0 0 0 0 0 0 0 0 0 0 0 0 0 0 0 0 0 0 0
0 0 0 0 0 0 0 0 0 0 0 0 0 0 0 0 0 0 0 0 0 0 0 0 0 0 0 0 0 0 0 0 0 0 0 0 0 0 0 0 0 0 0 0 0 0 0 0 0 0 0 0 0 0
0 0 0 0 0 0 0 0 0 0 0 0 0 0 0 0 0 0 0 0 0 0 0 0 0 0 0 0 0 0 0 0 0 0 0 0 0 0 0 0 0 0 0 0 0 0 0 0 0 0 0 0 0 0
0 0 0 0 0 0 0 0 0 0 0 0 0 0 0 0 0 0 0 0 0 0 0 0 0 0 0 0 0 0 0 0 0 0 0 0 0 0 0 0 0 0 0 0 0 0 0 0 0 0 0 0 0 0
0 0 0 0 0 0 0 0 0 0 0 0 0 0 0 0 0 0 0 0 0 0 0 0 0 0 0 0 0 0 0 0 0 0 0 0 0 0 0 0 0 0 0 0 0 0 0 0 0 0 0 0 0 0
0 0 0 0 0 0 0 0 0 0 0 0 0 0 0 0 0 0 0 0 0 0 0 0 0 0 0 0 0 0 0 0 0 0 0 0 0 0 0 0 0 0 0 0 0 0 0 0 0 0 0 0 0 0
0 0 0 0 0 0 0 0 0 0 0 0 0 0 0 0 0 0 0 0 0 0 0 0 0 0 0 0 0 0 0 0 0 0 0 0 0 0 0 0 0 0 0 0 0 0 0 0 0 0 0 0 0 0
0 0 0 0 0 0 0 0 0 0 0 0 0 0 0 0 0 0 0 0 0 0 0 0 0 0 0 0 0 0 0 0 0 0 0 0 0 0 0 0 0 0 0 0 0 0 0 0 0 0 0 0 0 0
0 0 0 0 0 0 0 0 0 0 0 -0 0 0 0 0 0 0 0 0 0 0 0 0 0 0 0 0 0 0 0 0 0 0 0 0 0 0 0 0 0 0 0 0 0 0 0 0 0 0 0 0 0 0
0 0 0 0 0 0 0 0 0 0 0 0 0 0 0 0 0 0 0 0 0 0 0 0 0 0 0 0 0 0 0 0 0 0 0 0 0 0 -0 -0 0 0 0 0 0 0 0 0 0 0 0 0 0 0
0 0 0 0 0 0 0 0 0 0 0 0 0 0 0 0 0 0 0 0 0 0 0 0 0 0 0 0 0 0 0 0 0 0 0 0 0 0 0 0 0 0 0 0 0 0 0 0 0 0 0 0 0 0
0 0 0 0 0 0 0 0 0 0 0 0 0 0 0 0 0 0 0 0 0 0 0 0 0 0 0 0 0 0 0 0 0 0 0 0 0 0 0 0 0 0 0 0 0 0 0 0 0 0 0 0 0 0
0 0 0 0 0 0 0 0 0 0 0 0 0 0 0 0 0 0 0 0 0 0 0 0 -0 -0 -0 -0 -0 -0 -0 -0 0 -0 0 0 0 1 0 0 0 0 0 0 0 0 0 0 0 0 0 0 0 0
0 0 0 0 0 0 0 0 0 0 0 0 0 0 0 0 0 0 0 0 0 0 -0 -0 -0 -0 -0 -0 -0 -0 -0 0 -0 0 -0 0 0 0 0 0 0 0 0 0 0 0 0 0 0 0 0 0 0 0
0 0 0 0 0 0 0 0 0 0 0 0 0 0 0 0 0 0 0 -0 -0 -0 -0 -0 -0 -0 -0 -0 0 -0 0 0 0 -0 -0 0 0 0 0 0 0 0 0 0 0 0 0 0 0 0 0 0 0 0
0 0 0 0 0 0 0 0 0 0 0 0 0 0 0 0 0 -0 -0 0 -0 0 -0 -0 0 0 -0 0 0 0 0 -0 0 -0 -0 -0 -0 -0 0 0 0 0 0 0 0 0 0 0 0 0 0 0 0 0
0 0 0 0 0 0 0 0 0 0 0 0 0 0 0 0 0 -0 -0 -0 0 0 0 0 0 0 0 0 0 0 0 -0 -0 -0 -0 -0 -0 -0 0 0 0 0 0 0 0 0 0 0 0 0 0 0 0 0
0 0 0 0 0 0 0 0 0 0 0 0 0 0 0 0 -0 -0 -0 0 0 0 0 0 0 0 0 0 0 -0 -0 -0 -0 -0 -0 -0 -0 -0 0 0 0 0 0 0 0 0 0 0 0 0 0 0 0 0
0 0 0 0 0 0 0 0 0 0 0 0 0 0 -0 0 -0 -0 0 0 0 0 0 0 -0 -0 0 -0 -0 -0 -0 -0 0 -0 0 -0 -0 0 0 0 0 0 0 0 0 0 0 0 0 0 0 0 0 0
0 0 0 0 0 0 0 0 0 0 0 0 0 0 0 0 -0 0 -0 0 0 0 0 0 0 0 -0 -0 -0 -0 -0 -0 0 0 0 -0 -0 0 0 0 0 0 1 0 0 0 0 0 0 0 0 0 0 0
0 0 0 0 0 0 0 0 0 0 0 0 0 0 0 0 -0 -0 -0 0 0 -0 0 0 0 0 -0 -0 -0 -0 0 0 0 -0 0 0 0 0 0 0 0 0 0 0 0 0 0 0 0 0 0 0 0 0
0 0 0 0 0 0 0 0 0 0 0 0 0 0 0 0 -0 -0 -0 0 0 0 0 0 -0 -0 -0 -0 0 0 0 0 0 0 0 0 0 0 0 0 0 0 0 0 0 0 0 0 0 0 0 0 0 0
0 0 0 0 0 0 0 0 0 0 0 0 0 0 0 0 -0 -0 -0 0 0 0 0 -0 -0 -0 0 0 0 0 0 0 0 0 0 0 0 0 0 0 0 0 0 0 0 0 0 0 0 0 0 0 0 0
0 0 0 0 0 0 0 0 0 0 0 0 0 -0 0 0 -0 -0 -0 -0 -0 -0 0 0 0 0 0 0 0 0 0 0 0 0 0 0 0 0 0 0 0 0 0 0 0 0 0 0 0 0 0 0 0 -0
0 0 0 0 0 0 0 0 0 0 0 -0 -0 0 0 0 -0 -0 -0 0 0 -0 -0 -0 -0 0 0 0 0 0 0 0 0 0 0 0 0 0 0 0 0 0 0 0 0 0 0 0 0 0 0 0 0 -0
0 0 0 0 0 0 -0 -0 -0 -0 0 -0 0 0 0 -0 -0 0 0 0 0 -0 0 0 0 0 0 0 0 0 0 0 0 0 0 0 0 0 0 0 0 0 0 0 0 0 0 0 0 0 -0 -0 -0 -0
0 0 0 0 0 0 0 0 0 -0 -0 -0 -0 0 0 0 0 0 0 0 0 0 0 0 0 0 0 0 0 0 0 0 0 0 0 0 0 1 0 0 0 0 0 0 0 0 0 0 0 -0 0 -0 -0 -0
0 0 0 0 0 0 0 0 0 0 0 0 0 0 0 0 0 0 0 0 0 0 0 0 0 0 0 0 0 0 0 0 0 0 0 0 1 1 1 0 0 0 0 0 0 0 0 0 0 0 0 -0 -0 -0
0 0 0 0 0 0 0 0 0 0 0 0 0 0 0 0 0 0 0 0 0 0 0 0 0 0 0 0 0 0 0 0 0 0 0 0 0 0 0 0 0 0 0 0 0 0 0 0 0 0 0 0 0 0
0 0 0 0 0 0 0 0 0 0 0 0 0 0 0 0 0 0 0 0 0 0 0 0 0 0 0 0 0 0 0 0 0 0 0 0 0 0 0 0 0 0 0 0 0 0 0 0 0 0 -0 0 0 0
0 0 0 0 0 0 0 0 0 0 0 0 0 0 0 0 0 0 0 0 0 0 0 0 0 0 0 0 0 0 0 0 0 0 0 0 0 0 0 0 0 0 0 0 0 0 0 0 0 0 -0 0 0 0
0 0 0 0 0 0 0 0 0 0 0 0 0 0 0 0 0 0 0 0 0 -0 0 0 0 0 0 0 0 0 0 0 0 0 0 0 0 0 0 0 0 0 0 0 0 0 0 0 -0 0 0 0 0 0
Wind_Speed_500mb
30 31 33 33 33 33 34 34 34 34 36 37 37 39 40 39 34 26 16 22 11 12 32 29 24 24 24 17 14 11 15 17 14 18 22 26 28 32 33 41 34 28 18 22 23 27 28 12 15 30 9 10 19 29
31 33 33 32 31 31 31 31 32 32 33 33 34 34 35 35 38 36 14 24 25 17 23 31 37 38 30 24 26 22 22 15 9 9 8 12 18 16 31 32 37 32 33 23 20 16 8 11 34 35 3 1 22 32
30 30 29 29 30 30 30 30 30 30 31 32 33 34 34 33 34 35 26 29 19 16 31 17 5 5 7 26 43 25 24 23 19 9 16 9 12 12 24 30 39 33 30 23 20 26 26 20 18 27 24 14 10 23
30 29 27 27 27 29 31 31 31 31 31 30 31 33 33 31 32 32 24 23 16 14 13 4 8 5 23 21 21 38 53 39 27 20 25 16 14 10 18 14 16 16 23 30 29 32 8 24 26 23 25 26 19 26
28 28 26 27 30 32 33 33 33 32 33 32 33 33 35 34 31 28 13 7 17 11 14 30 43 14 8 13 22 35 43 43 38 35 21 22 33 28 28 24 20 28 23 21 23 34 34 31 16 21 20 25 24 35
30 30 30 30 33 34 35 35 34 34 33 32 32 33 33 33 29 18 6 6 13 15 13 9 12 10 13 18 16 23 34 39 47 34 36 39 45 31 17 31 49 51 31 23 13 9 3 3 7 10 17 20 29 32
32 31 32 32 32 33 33 34 34 35 35 34 32 32 31 31 31 8 8 6 13 21 8 14 9 4 14 12 12 9 9 20 29 44 49 41 33 45 28 35 38 37 56 56 44 39 35 25 13 11 11 15 23 25
32 32 31 30 30 32 33 34 34 35 35 34 32 34 35 25 7 4 3 5 10 13 8 8 9 11 12 11 14 11 22 24 23 28 27 32 43 49 28 40 48 63 59 48 44 30 35 36 33 27 19 18 24 28
31 28 28 29 30 30 32 34 35 37 35 36 35 29 6 4 3 4 10 22 24 12 11 8 9 10 19 20 23 15 10 12 23 19 27 24 24 24 22 41 47 51 61 62 64 58 50 43 35 37 39 33 34 32
27 26 27 29 30 32 34 36 36 36 37 32 18 6 5 4 10 16 9 6 7 9 11 12 21 18 23 24 12 20 11 11 13 20 31 28 33 59 61 48 30 45 53 54 59 61 60 62 58 42 36 47 51 46
24 24 28 29 30 31 32 32 33 36 29 18 13 6 15 23 4 6 6 8 7 9 12 14 12 13 11 18 18 10 9 9 12 14 23 22 27 34 60 71 72 75 69 62 59 54 53 56 55 51 40 39 40 47
25 26 27 29 28 26 26 27 29 25 20 25 21 19 10 2 1 6 4 5 9 5 6 6 5 15 19 17 9 10 9 8 14 12 12 28 26 49 26 24 33 55 69 71 63 61 51 48 52 54 44 37 43 45
27 26 27 27 24 19 23 22 26 31 36 14 6 6 4 3 1 6 6 6 6 5 7 12 19 22 10 8 11 7 10 14 24 19 35 33 46 28 16 24 31 32 42 48 55 68 64 49 44 51 52 40 44 48
26 25 24 23 15 18 24 19 23 27 16 7 6 8 8 7 9 6 8 4 8 15 23 28 28 16 20 9 8 8 11 10 11 20 31 15 44 31 27 33 38 37 33 37 45 51 54 53 47 43 46 50 57 57
23 22 21 13 16 23 26 19 22 24 9 9 7 8 9 12 10 13 16 19 20 20 24 25 23 18 12 9 6 8 9 12 9 7 17 56 75 55 46 44 44 40 35 32 32 39 42 42 47 42 47 54 56 59
21 20 15 17 19 24 26 27 28 23 6 8 11 10 15 19 22 15 18 20 12 13 20 18 10 7 8 5 7 12 8 9 8 18 61 75 84 71 60 48 46 42 40 34 28 30 36 37 40 46 51 56 59 61
19 10 21 22 25 29 29 25 15 7 9 9 13 18 27 34 30 27 21 19 11 11 7 8 6 8 6 7 7 8 9 14 47 75 71 77 68 65 64 56 47 46 41 36 29 28 38 40 46 55 62 59 57 56
15 17 24 25 26 28 22 8 6 9 13 18 18 15 21 32 34 35 30 22 13 11 9 7 7 8 9 9 11 10 35 72 74 68 67 77 78 74 51 47 47 43 41 35 32 33 44 55 58 62 64 63 60 58
18 21 23 22 20 18 7 5 7 10 17 22 27 30 33 35 36 34 28 23 21 19 6 9 13 10 11 22 36 55 59 59 63 68 83 83 80 65 56 50 42 38 30 28 36 50 61 68 66 69 66 64 68 61
23 22 21 17 12 7 7 8 8 12 13 12 30 28 27 36 34 31 27 24 20 12 15 10 14 36 43 56 62 66 67 60 59 71 75 71 70 59 43 38 33 20 23 36 52 56 65 64 64 70 74 75 73 63
19 14 13 12 14 13 11 8 11 13 20 14 24 28 29 22 24 21 12 7 15 12 19 33 41 46 51 59 61 59 58 63 66 66 72 68 54 36 26 26 30 34 42 53 66 70 74 86 79 74 73 65 59 61
16 16 15 18 9 8 11 13 13 18 15 25 30 12 15 14 13 10 14 13 15 30 26 33 45 51 57 55 47 44 46 54 59 54 54 42 30 26 13 46 45 54 64 62 70 73 81 84 74 69 62 65 62 53
17 16 11 8 7 8 11 8 9 9 9 9 12 9 8 8 8 18 10 17 21 21 23 35 42 48 50 46 41 46 50 44 50 56 42 25 33 4 59 61 69 74 73 74 84 82 75 67 73 66 66 64 58 53
13 6 6 7 13 9 7 9 10 10 9 9 5 8 7 7 13 8 8 12 15 26 29 32 40 44 43 35 41 58 41 43 51 45 34 30 43 61 65 67 71 76 73 72 69 76 78 68 71 74 71 55 50 51
7 8 7 9 9 8 7 6 8 7 7 6 7 8 3 6 4 6 7 9 23 32 33 37 39 41 42 44 54 33 51 55 45 25 19 18 26 34 53 59 62 67 72 80 76 75 76 69 72 56 50 47 46 44
7 9 11 7 7 9 6 7 6 5 4 7 8 6 2 4 5 9 6 11 24 33 41 44 44 46 49 36 37 53 65 76 52 63 65 60 58 71 78 80 77 71 67 75 82 78 66 54 49 46 44 45 42 39
7 10 14 14 8 9 14 18 22 14 8 7 6 2 1 5 7 7 15 26 31 42 41 36 33 32 34 34 46 55 60 58 48 54 64 66 71 70 71 75 77 80 78 75 67 57 58 56 53 51 50 45 40 36
15 10 11 14 16 19 10 9 8 7 7 9 7 5 5 8 8 8 24 38 45 38 32 25 20 16 17 34 41 43 52 45 63 66 62 63 71 79 79 74 66 63 54 56 63 55 53 54 52 49 46 43 37 31
12 12 12 12 15 13 14 16 12 10 13 12 6 5 9 14 29 44 54 40 28 18 14 11 10 8 21 35 43 43 40 45 56 64 60 57 60 58 55 51 49 48 56 52 46 44 44 42 40 37 34 32 32 30
11 20 10 9 9 12 16 28 19 20 18 20 26 37 51 54 48 36 28 18 10 7 7 6 3 9 21 31 40 47 39 45 56 54 49 43 39 34 29 31 35 36 35 35 35 41 40 35 31 25 22 23 22 20
6 15 11 13 11 16 25 25 33 36 39 40 37 42 47 30 19 11 11 7 2 3 3 7 7 9 15 18 24 30 35 44 44 29 27 20 18 29 27 31 32 31 29 32 32 30 28 26 21 17 16 18 16 15
14 18 9 7 9 13 17 11 7 8 9 12 13 12 10 8 7 6 5 6 9 6 3 2 6 11 15 16 20 24 29 33 26 21 21 24 26 29 30 28 25 23 21 21 23 24 23 19 16 13 12 13 10 11
10 15 17 9 7 8 6 7 6 7 10 8 7 7 6 5 7 5 1 8 10 8 7 5 5 6 11 15 19 19 17 21 23 25 26 32 34 29 22 17 14 14 18 23 23 20 19 16 15 14 13 14 14 11
Wind_Direction_500mb
347 346 347 348 352 355 358 359 359 358 357 358 0 1 4 4 9 11 338 349 357 280 281 269 259 271 271 256 273 29 272 208 249 245 243 237 239 245 232 244 225 202 213 218 242 253 251 194 187 202 244 135 160 180
341 341 344 345 347 351 354 356 358 358 356 355 355 356 1 2 2 5 345 333 320 263 264 276 265 257 254 255 269 254 278 299 321 283 260 274 247 242 244 235 226 237 231 241 213 222 161 218 223 208 350 161 191 184
338 340 340 342 343 342 341 341 343 344 345 347 349 349 351 355 357 356 341 333 337 294 294 274 288 210 305 251 235 252 243 252 252 271 314 282 262 273 239 230 255 207 241 250 228 237 234 225 244 244 244 246 227 210
339 339 339 342 345 346 344 342 339 337 337 339 339 339 341 349 349 346 341 337 1 307 283 300 307 254 290 272 235 232 247 264 261 269 268 261 257 232 262 273 275 244 174 228 241 243 254 242 253 256 246 238 235 202
344 342 341 339 339 338 337 338 338 336 335 335 333 331 331 334 341 341 323 10 25 356 311 296 295 286 290 286 259 250 250 246 245 245 236 246 249 272 262 273 259 229 243 228 236 247 230 255 260 244 228 206 185 171
340 337 334 331 331 332 333 333 333 331 330 328 325 323 321 321 332 344 271 288 357 1 300 292 317 279 309 309 286 260 245 239 232 239 243 252 250 247 251 239 236 251 245 243 256 60 342 284 238 182 176 171 173 171
333 331 329 329 329 330 331 330 329 329 328 325 323 319 316 313 308 270 277 212 327 335 295 288 271 260 319 316 305 282 276 227 236 236 241 253 248 224 253 257 261 243 242 251 255 275 276 252 234 200 196 179 172 175
328 328 329 329 331 332 332 332 332 331 327 325 322 316 313 314 330 47 187 203 298 328 281 280 282 262 2 326 312 311 288 257 229 242 237 233 236 243 252 253 249 247 252 257 259 251 257 261 256 239 239 219 198 191
327 328 330 332 332 332 331 330 328 330 328 327 323 317 350 76 176 187 257 285 285 240 297 274 300 323 357 335 310 288 272 266 255 236 238 239 230 227 229 235 239 236 239 247 256 252 250 251 260 254 246 229 222 219
331 332 332 331 329 329 328 329 330 332 332 335 349 331 228 226 257 298 320 200 206 203 226 266 290 287 317 339 323 326 270 269 282 251 248 236 244 246 239 244 245 237 246 247 249 253 254 248 242 252 248 241 237 215
332 331 330 330 329 330 331 331 334 337 352 352 339 298 296 314 329 218 250 237 178 217 216 248 257 295 317 321 321 281 304 288 271 255 245 250 249 242 240 242 245 246 249 248 244 246 246 243 240 235 235 223 207 190
328 327 327 327 328 333 339 338 343 348 337 322 302 304 313 321 307 240 239 251 230 256 227 278 318 318 312 312 275 273 264 253 254 294 281 261 258 269 281 290 250 250 249 250 247 246 245 242 239 227 224 216 195 184
324 323 324 324 325 330 343 346 349 343 336 332 319 276 280 210 286 195 211 210 234 287 346 333 308 319 292 265 265 276 270 250 296 264 255 260 273 273 295 296 285 276 268 259 253 243 242 245 241 230 220 207 186 176
320 319 321 324 325 327 328 329 350 346 340 308 294 291 249 191 246 231 277 294 296 304 306 318 306 280 273 259 252 255 248 282 252 259 264 314 6 340 305 297 294 290 284 264 249 240 236 237 234 220 210 195 178 169
316 316 320 309 322 324 328 316 321 323 319 280 258 250 237 256 256 252 269 280 282 295 298 296 285 249 261 255 226 266 248 248 260 8 329 325 317 312 305 295 289 285 281 271 253 236 226 222 207 201 190 180 171 163
313 320 320 304 301 318 323 316 318 314 247 241 242 255 256 268 269 252 258 275 289 289 297 264 265 261 243 236 240 229 256 260 319 326 309 301 296 293 295 290 284 279 272 269 258 239 210 189 179 173 166 167 164 160
313 309 313 314 312 312 313 312 300 250 249 239 241 247 264 274 278 280 283 286 280 288 253 275 262 240 312 243 240 223 233 298 311 302 289 300 285 287 292 286 283 279 273 267 263 233 201 188 168 157 155 159 156 156
299 300 307 310 321 331 316 287 254 260 255 249 253 270 265 269 286 289 283 269 228 231 228 249 250 230 236 248 250 242 271 289 283 281 286 301 299 305 294 279 284 275 271 269 256 205 181 170 157 155 153 150 146 149
291 297 304 304 317 318 289 260 239 267 256 271 275 280 280 284 286 284 278 264 250 233 227 243 250 233 234 245 260 275 283 287 288 303 304 309 309 306 298 279 270 265 260 243 194 176 172 163 157 155 152 147 146 143
300 301 296 290 291 288 275 252 240 264 272 300 295 289 291 289 288 289 280 262 221 187 208 229 244 267 276 282 287 292 292 294 293 299 297 293 299 299 299 274 261 235 197 181 169 156 149 144 147 151 146 150 141 143
308 313 307 304 276 235 261 273 254 255 287 271 291 305 293 296 298 290 279 199 190 223 236 252 271 288 298 296 291 291 288 289 295 288 291 296 310 310 296 222 188 176 167 160 151 151 151 154 149 148 144 135 138 140
294 304 301 298 249 252 259 242 257 289 275 278 302 290 280 289 293 281 302 249 248 253 263 288 298 308 307 304 299 300 301 306 303 325 320 329 317 315 202 162 161 148 139 139 140 138 135 144 149 146 139 139 137 141
290 295 281 237 242 241 260 246 255 250 267 290 295 280 257 270 264 313 260 249 270 291 284 310 310 310 312 313 323 322 318 335 329 333 336 319 317 343 129 137 133 131 125 126 133 134 133 139 137 138 138 139 139 143
278 244 237 229 212 257 243 239 234 268 276 267 245 267 268 268 304 262 255 277 310 314 312 318 319 320 330 332 319 322 348 336 342 335 327 344 68 99 109 120 124 126 125 124 124 130 132 137 138 138 139 138 141 143
233 222 213 238 239 248 256 245 239 258 270 288 277 275 273 296 271 260 274 315 327 334 336 323 328 331 330 326 325 328 334 334 328 324 23 134 152 151 133 129 117 117 122 123 126 129 128 130 133 134 138 141 145 150
235 215 208 224 239 232 253 271 251 278 269 257 258 277 295 268 260 258 266 276 309 330 332 329 326 329 338 342 331 337 338 355 43 69 87 98 109 113 116 113 112 114 122 125 128 128 125 128 131 134 136 137 141 145
245 226 214 224 245 284 276 266 279 276 264 259 275 190 260 271 260 256 272 310 305 320 321 321 323 330 332 331 339 346 9 42 67 81 98 107 113 108 107 110 114 119 125 127 128 124 123 123 121 123 126 130 132 134
236 243 212 198 212 222 259 284 265 242 232 236 265 244 236 227 256 262 317 321 319 320 319 328 340 13 354 351 356 13 38 83 103 107 110 107 108 113 116 118 120 122 116 122 125 122 123 122 121 120 120 121 121 120
235 227 209 224 217 230 225 219 247 235 226 223 249 250 250 253 293 305 314 320 317 316 325 340 352 4 3 16 29 44 56 89 107 107 104 103 104 115 119 112 112 113 122 123 128 129 126 125 125 124 124 124 122 123
239 202 214 217 212 228 230 209 240 249 258 253 258 273 284 294 302 298 298 314 324 330 321 339 48 358 359 29 32 58 89 112 120 117 117 115 128 130 112 107 113 119 121 124 125 139 143 138 134 129 131 142 148 133
239 193 227 227 253 253 260 268 274 274 271 270 268 262 274 287 317 324 339 331 53 47 33 93 78 9 22 38 52 60 76 137 155 144 115 94 105 125 118 118 120 124 122 124 128 139 144 144 141 137 135 141 151 165
203 209 225 254 269 274 285 255 245 260 277 258 264 236 264 267 292 34 5 110 126 123 166 126 13 8 40 54 57 64 88 117 141 149 131 108 123 123 122 123 119 121 128 134 134 139 145 145 144 144 143 148 154 168
223 229 228 270 269 276 258 253 251 262 246 252 243 241 254 322 11 30 70 153 168 183 207 225 352 55 79 87 68 70 80 113 139 162 154 141 139 131 125 125 118 116 127 133 132 132 134 139 142 151 153 156 159 172
Wind_Speed_850mb
30 31 33 33 33 33 34 34 34 34 36 37 37 39 40 39 34 26 16 22 11 12 32 29 24 24 24 17 14 11 15 17 14 18 22 26 28 32 33 41 34 28 18 22 23 27 28 12 15 30 9 10 19 29
31 33 33 32 31 31 31 31 32 32 33 33 34 34 35 35 38 36 14 24 25 17 23 31 37 38 30 24 26 22 22 15 9 9 8 12 18 16 31 32 37 32 33 23 20 16 8 11 34 35 3 1 22 32
30 30 29 29 30 30 30 30 30 30 31 32 33 34 34 33 34 35 26 29 19 16 31 17 5 5 7 26 43 25 24 23 19 9 16 9 12 12 24 30 39 33 30 23 20 26 26 20 18 27 24 14 10 23
30 29 27 27 27 29 31 31 31 31 31 30 31 33 33 31 32 32 24 23 16 14 13 4 8 5 23 21 21 38 53 39 27 20 25 16 14 10 18 14 16 16 23 30 29 32 8 24 26 23 25 26 19 26
28 28 26 27 30 32 33 33 33 32 33 32 33 33 35 34 31 28 13 7 17 11 14 30 43 14 8 13 22 35 43 43 38 35 21 22 33 28 28 24 20 28 23 21 23 34 34 31 16 21 20 25 24 35
30 30 30 30 33 34 35 35 34 34 33 32 32 33 33 33 29 18 6 6 13 15 13 9 12 10 13 18 16 23 34 39 47 34 36 39 45 31 17 31 49 51 31 23 13 9 3 3 7 10 17 20 29 32
32 31 32 32 32 33 33 34 34 35 35 34 32 32 31 31 31 8 8 6 13 21 8 14 9 4 14 12 12 9 9 20 29 44 49 41 33 45 28 35 38 37 56 56 44 39 35 25 13 11 11 15 23 25
32 32 31 30 30 32 33 34 34 35 35 34 32 34 35 25 7 4 3 5 10 13 8 8 9 11 12 11 14 11 22 24 23 28 27 32 43 49 28 40 48 63 59 48 44 30 35 36 33 27 19 18 24 28
31 28 28 29 30 30 32 34 35 37 35 36 35 29 6 4 3 4 10 22 24 12 11 8 9 10 19 20 23 15 10 12 23 19 27 24 24 24 22 41 47 51 61 62 64 58 50 43 35 37 39 33 34 32
27 26 27 29 30 32 34 36 36 36 37 32 18 6 5 4 10 16 9 6 7 9 11 12 21 18 23 24 12 20 11 11 13 20 31 28 33 59 61 48 30 45 53 54 59 61 60 62 58 42 36 47 51 46
24 24 28 29 30 31 32 32 33 36 29 18 13 6 15 23 4 6 6 8 7 9 12 14 12 13 11 18 18 10 9 9 12 14 23 22 27 34 60 71 72 75 69 62 59 54 53 56 55 51 40 39 40 47
25 26 27 29 28 26 26 27 29 25 20 25 21 19 10 2 1 6 4 5 9 5 6 6 5 15 19 17 9 10 9 8 14 12 12 28 26 49 26 24 33 55 69 71 63 61 51 48 52 54 44 37 43 45
27 26 27 27 24 19 23 22 26 31 36 14 6 6 4 3 1 6 6 6 6 5 7 12 19 22 10 8 11 7 10 14 24 19 35 33 46 28 16 24 31 32 42 48 55 68 64 49 44 51 52 40 44 48
26 25 24 23 15 18 24 19 23 27 16 7 6 8 8 7 9 6 8 4 8 15 23 28 28 16 20 9 8 8 11 10 11 20 31 15 44 31 27 33 38 37 33 37 45 51 54 53 47 43 46 50 57 57
23 22 21 13 16 23 26 19 22 24 9 9 7 8 9 12 10 13 16 19 20 20 24 25 23 18 12 9 6 8 9 12 9 7 17 56 75 55 46 44 44 40 35 32 32 39 42 42 47 42 47 54 56 59
21 20 15 17 19 24 26 27 28 23 6 8 11 10 15 19 22 15 18 20 12 13 20 18 10 7 8 5 7 12 8 9 8 18 61 75 84 71 60 48 46 42 40 34 28 30 36 37 40 46 51 56 59 61
19 10 21 22 25 29 29 25 15 7 9 9 13 18 27 34 30 27 21 19 11 11 7 8 6 8 6 7 7 8 9 14 47 75 71 77 68 65 64 56 47 46 41 36 29 28 38 40 46 55 62 59 57 56
15 17 24 25 26 28 22 8 6 9 13 18 18 15 21 32 34 35 30 22 13 11 9 7 7 8 9 9 11 10 35 72 74 68 67 77 78 74 51 47 47 43 41 35 32 33 44 55 58 62 64 63 60 58
18 21 23 22 20 18 7 5 7 10 17 22 27 30 33 35 36 34 28 23 21 19 6 9 13 10 11 22 36 55 59 59 63 68 83 83 80 65 56 50 42 38 30 28 36 50 61 68 66 69 66 64 68 61
23 22 21 17 12 7 7 8 8 12 13 12 30 28 27 36 34 31 27 24 20 12 15 10 14 36 43 56 62 66 67 60 59 71 75 71 70 59 43 38 33 20 23 36 52 56 65 64 64 70 74 75 73 63
19 14 13 12 14 13 11 8 11 13 20 14 24 28 29 22 24 21 12 7 15 12 19 33 41 46 51 59 61 59 58 63 66 66 72 68 54 36 26 26 30 34 42 53 66 70 74 86 79 74 73 65 59 61
16 16 15 18 9 8 11 13 13 18 15 25 30 12 15 14 13 10 14 13 15 30 26 33 45 51 57 55 47 44 46 54 59 54 54 42 30 26 13 46 45 54 64 62 70 73 81 84 74 69 62 65 62 53
17 16 11 8 7 8 11 8 9 9 9 9 12 9 8 8 8 18 10 17 21 21 23 35 42 48 50 46 41 46 50 44 50 56 42 25 33 4 59 61 69 74 73 74 84 82 75 67 73 66 66 64 58 53
13 6 6 7 13 9 7 9 10 10 9 9 5 8 7 7 13 8 8 12 15 26 29 32 40 44 43 35 41 58 41 43 51 45 34 30 43 61 65 67 71 76 73 72 69 76 78 68 71 74 71 55 50 51
7 8 7 9 9 8 7 6 8 7 7 6 7 8 3 6 4 6 7 9 23 32 33 37 39 41 42 44 54 33 51 55 45 25 19 18 26 34 53 59 62 67 72 80 76 75 76 69 72 56 50 47 46 44
7 9 11 7 7 9 6 7 6 5 4 7 8 6 2 4 5 9 6 11 24 33 41 44 44 46 49 36 37 53 65 76 52 63 65 60 58 71 78 80 77 71 67 75 82 78 66 54 49 46 44 45 42 39
7 10 14 14 8 9 14 18 22 14 8 7 6 2 1 5 7 7 15 26 31 42 41 36 33 32 34 34 46 55 60 58 48 54 64 66 71 70 71 75 77 80 78 75 67 57 58 56 53 51 50 45 40 36
15 10 11 14 16 19 10 9 8 7 7 9 7 5 5 8 8 8 24 38 45 38 32 25 20 16 17 34 41 43 52 45 63 66 62 63 71 79 79 74 66 63 54 56 63 55 53 54 52 49 46 43 37 31
12 12 12 12 15 13 14 16 12 10 13 12 6 5 9 14 29 44 54 40 28 18 14 11 10 8 21 35 43 43 40 45 56 64 60 57 60 58 55 51 49 48 56 52 46 44 44 42 40 37 34 32 32 30
11 20 10 9 9 12 16 28 19 20 18 20 26 37 51 54 48 36 28 18 10 7 7 6 3 9 21 31 40 47 39 45 56 54 49 43 39 34 29 31 35 36 35 35 35 41 40 35 31 25 22 23 22 20
6 15 11 13 11 16 25 25 33 36 39 40 37 42 47 30 19 11 11 7 2 3 3 7 7 9 15 18 24 30 35 44 44 29 27 20 18 29 27 31 32 31 29 32 32 30 28 26 21 17 16 18 16 15
14 18 9 7 9 13 17 11 7 8 9 12 13 12 10 8 7 6 5 6 9 6 3 2 6 11 15 16 20 24 29 33 26 21 21 24 26 29 30 28 25 23 21 21 23 24 23 19 16 13 12 13 10 11
10 15 17 9 7 8 6 7 6 7 10 8 7 7 6 5 7 5 1 8 10 8 7 5 5 6 11 15 19 19 17 21 23 25 26 32 34 29 22 17 14 14 18 23 23 20 19 16 15 14 13 14 14 11
Wind_Direction_850mb
347 346 347 348 352 355 358 359 359 358 357 358 0 1 4 4 9 11 338 349 357 280 281 269 259 271 271 256 273 29 272 208 249 245 243 237 239 245 232 244 225 202 213 218 242 253 251 194 187 202 244 135 160 180
341 341 344 345 347 351 354 356 358 358 356 355 355 356 1 2 2 5 345 333 320 263 264 276 265 257 254 255 269 254 278 299 321 283 260 274 247 242 244 235 226 237 231 241 213 222 161 218 223 208 350 161 191 184
338 340 340 342 343 342 341 341 343 344 345 347 349 349 351 355 357 356 341 333 337 294 294 274 288 210 305 251 235 252 243 252 252 271 314 282 262 273 239 230 255 207 241 250 228 237 234 225 244 244 244 246 227 210
339 339 339 342 345 346 344 342 339 337 337 339 339 339 341 349 349 346 341 337 1 307 283 300 307 254 290 272 235 232 247 264 261 269 268 261 257 232 262 273 275 244 174 228 241 243 254 242 253 256 246 238 235 202
344 342 341 339 339 338 337 338 338 336 335 335 333 331 331 334 341 341 323 10 25 356 311 296 295 286 290 286 259 250 250 246 245 245 236 246 249 272 262 273 259 229 243 228 236 247 230 255 260 244 228 206 185 171
340 337 334 331 331 332 333 333 333 331 330 328 325 323 321 321 332 344 271 288 357 1 300 292 317 279 309 309 286 260 245 239 232 239 243 252 250 247 251 239 236 251 245 243 256 60 342 284 238 182 176 171 173 171
333 331 329 329 329 330 331 330 329 329 328 325 323 319 316 313 308 270 277 212 327 335 295 288 271 260 319 316 305 282 276 227 236 236 241 253 248 224 253 257 261 243 242 251 255 275 276 252 234 200 196 179 172 175
328 328 329 329 331 332 332 332 332 331 327 325 322 316 313 314 330 47 187 203 298 328 281 280 282 262 2 326 312 311 288 257 229 242 237 233 236 243 252 253 249 247 252 257 259 251 257 261 256 239 239 219 198 191
327 328 330 332 332 332 331 330 328 330 328 327 323 317 350 76 176 187 257 285 285 240 297 274 300 323 357 335 310 288 272 266 255 236 238 239 230 227 229 235 239 236 239 247 256 252 250 251 260 254 246 229 222 219
331 332 332 331 329 329 328 329 330 332 332 335 349 331 228 226 257 298 320 200 206 203 226 266 290 287 317 339 323 326 270 269 282 251 248 236 244 246 239 244 245 237 246 247 249 253 254 248 242 252 248 241 237 215
332 331 330 330 329 330 331 331 334 337 352 352 339 298 296 314 329 218 250 237 178 217 216 248 257 295 317 321 321 281 304 288 271 255 245 250 249 242 240 242 245 246 249 248 244 246 246 243 240 235 235 223 207 190
328 327 327 327 328 333 339 338 343 348 337 322 302 304 313 321 307 240 239 251 230 256 227 278 318 318 312 312 275 273 264 253 254 294 281 261 258 269 281 290 250 250 249 250 247 246 245 242 239 227 224 216 195 184
324 323 324 324 325 330 343 346 349 343 336 332 319 276 280 210 286 195 211 210 234 287 346 333 308 319 292 265 265 276 270 250 296 264 255 260 273 273 295 296 285 276 268 259 253 243 242 245 241 230 220 207 186 176
320 319 321 324 325 327 328 329 350 346 340 308 294 291 249 191 246 231 277 294 296 304 306 318 306 280 273 259 252 255 248 282 252 259 264 314 6 340 305 297 294 290 284 264 249 240 236 237 234 220 210 195 178 169
316 316 320 309 322 324 328 316 321 323 319 280 258 250 237 256 256 252 269 280 282 295 298 296 285 249 261 255 226 266 248 248 260 8 329 325 317 312 305 295 289 285 281 271 253 236 226 222 207 201 190 180 171 163
313 320 320 304 301 318 323 316 318 314 247 241 242 255 256 268 269 252 258 275 289 289 297 264 265 261 243 236 240 229 256 260 319 326 309 301 296 293 295 290 284 279 272 269 258 239 210 189 179 173 166 167 164 160
313 309 313 314 312 312 313 312 300 250 249 239 241 247 264 274 278 280 283 286 280 288 253 275 262 240 312 243 240 223 233 298 311 302 289 300 285 287 292 286 283 279 273 267 263 233 201 188 168 157 155 159 156 156
299 300 307 310 321 331 316 287 254 260 255 249 253 270 265 269 286 289 283 269 228 231 228 249 250 230 236 248 250 242 271 289 283 281 286 301 299 305 294 279 284 275 271 269 256 205 181 170 157 155 153 150 146 149
291 297 304 304 317 318 289 260 239 267 256 271 275 280 280 284 286 284 278 264 250 233 227 243 250 233 234 245 260 275 283 287 288 303 304 309 309 306 298 279 270 265 260 243 194 176 172 163 157 155 152 147 146 143
300 301 296 290 291 288 275 252 240 264 272 300 295 289 291 289 288 289 280 262 221 187 208 229 244 267 276 282 287 292 292 294 293 299 297 293 299 299 299 274 261 235 197 181 169 156 149 144 147 151 146 150 141 143
308 313 307 304 276 235 261 273 254 255 287 271 291 305 293 296 298 290 279 199 190 223 236 252 271 288 298 296 291 291 288 289 295 288 291 296 310 310 296 222 188 176 167 160 151 151 151 154 149 148 144 135 138 140
294 304 301 298 249 252 259 242 257 289 275 278 302 290 280 289 293 281 302 249 248 253 263 288 298 308 307 304 299 300 301 306 303 325 320 329 317 315 202 162 161 148 139 139 140 138 135 144 149 146 139 139 137 141
290 295 281 237 242 241 260 246 255 250 267 290 295 280 257 270 264 313 260 249 270 291 284 310 310 310 312 313 323 322 318 335 329 333 336 319 317 343 129 137 133 131 125 126 133 134 133 139 137 138 138 139 139 143
278 244 237 229 212 257 243 239 234 268 276 267 245 267 268 268 304 262 255 277 310 314 312 318 319 320 330 332 319 322 348 336 342 335 327 344 68 99 109 120 124 126 125 124 124 130 132 137 138 138 139 138 141 143
233 222 213 238 239 248 256 245 239 258 270 288 277 275 273 296 271 260 274 315 327 334 336 323 328 331 330 326 325 328 334 334 328 324 23 134 152 151 133 129 117 117 122 123 126 129 128 130 133 134 138 141 145 150
235 215 208 224 239 232 253 271 251 278 269 257 258 277 295 268 260 258 266 276 309 330 332 329 326 329 338 342 331 337 338 355 43 69 87 98 109 113 116 113 112 114 122 125 128 128 125 128 131 134 136 137 141 145
245 226 214 224 245 284 276 266 279 276 264 259 275 190 260 271 260 256 272 310 305 320 321 321 323 330 332 331 339 346 9 42 67 81 98 107 113 108 107 110 114 119 125 127 128 124 123 123 121 123 126 130 132 134
236 243 212 198 212 222 259 284 265 242 232 236 265 244 236 227 256 262 317 321 319 320 319 328 340 13 354 351 356 13 38 83 103 107 110 107 108 113 116 118 120 122 116 122 125 122 123 122 121 120 120 121 121 120
235 227 209 224 217 230 225 219 247 235 226 223 249 250 250 253 293 305 314 320 317 316 325 340 352 4 3 16 29 44 56 89 107 107 104 103 104 115 119 112 112 113 122 123 128 129 126 125 125 124 124 124 122 123
239 202 214 217 212 228 230 209 240 249 258 253 258 273 284 294 302 298 298 314 324 330 321 339 48 358 359 29 32 58 89 112 120 117 117 115 128 130 112 107 113 119 121 124 125 139 143 138 134 129 131 142 148 133
239 193 227 227 253 253 260 268 274 274 271 270 268 262 274 287 317 324 339 331 53 47 33 93 78 9 22 38 52 60 76 137 155 144 115 94 105 125 118 118 120 124 122 124 128 139 144 144 141 137 135 141 151 165
203 209 225 254 269 274 285 255 245 260 277 258 264 236 264 267 292 34 5 110 126 123 166 126 13 8 40 54 57 64 88 117 141 149 131 108 123 123 122 123 119 121 128 134 134 139 145 145 144 144 143 148 154 168
223 229 228 270 269 276 258 253 251 262 246 252 243 241 254 322 11 30 70 153 168 183 207 225 352 55 79 87 68 70 80 113 139 162 154 141 139 131 125 125 118 116 127 133 132 132 134 139 142 151 153 156 159 172